This demonstration page uses our WeatherBlox Daily Observations layout. Learn more.

41.55636, -103.73856

Hourly Observations for September 13, 2019

Temp ( °F °C ) Dew Point ( °F °C ) Humidity (%) Winds ( mph kmh ) Pressure ( in mb ) Visibility ( mi km ) Precip ( " mm )
12:58 am 00:58 Clear 62 16.9 35 1.6 36 36 NNW 10 17 30.18 1022 10 16.0934 0 0
1:58 am 01:58 Clear 55 12.6 37 3 52 52 S 6 9 30.21 1023 10 16.0934 0 0
2:58 am 02:58 Clear 56 13.2 37 2.5 49 49 SW 3 6 30.22 1023 10 16.0934 0 0
3:58 am 03:58 Clear 52 10.9 37 3 58 58 WSW 6 9 30.22 1023 10 16.0934 0 0
4:58 am 04:58 Clear 52 11 37 2.7 57 57 WSW 6 9 30.23 1024 10 16.0934 0 0
5:58 am 05:58 Clear 48 9.1 37 2.8 65 65 SW 3 6 30.28 1025 10 16.0934 0 0
6:58 am 06:58 Clear 52 10.9 35 1.7 53 53 SW 3 6 30.25 1024 10 16.0934 0 0
7:58 am 07:58 Clear 45 7.3 37 2.7 73 73 SW 3 6 30.24 1024 10 16.0934 0 0
8:58 am 08:58 Clear 41 5.1 37 2.8 85 85 SW 7 11 30.25 1024 10 16.0934 0 0
9:58 am 09:58 Clear 44 6.6 36 2.4 75 75 SW 6 9 30.23 1024 10 16.0934 0 0
10:58 am 10:58 Clear 46 7.6 38 3.4 75 75 SSW 12 19 30.23 1024 10 16.0934 0 0
11:58 am 11:58 Clear 47 8.5 37 2.9 68 68 SW 10 17 30.23 1024 10 16.0934 0 0
12:58 pm 12:58 Sunny 49 9.2 37 3 65 65 SSW 13 20 30.24 1024 10 16.0934 0 0
1:58 pm 13:58 Sunny 56 13.3 39 3.7 52 52 WSW 12 19 30.24 1024 10 16.0934 0 0
2:58 pm 14:58 Sunny 62 16.8 40 4.7 45 45 WNW 6 9 30.23 1024 10 16.0934 0 0
3:58 pm 15:58 Sunny 69 20.5 36 2.3 30 30 SW 16 26 30.21 1023 10 16.0934 0 0
4:58 pm 16:58 Sunny 72 22.4 35 1.4 25 25 SW 16 26 30.2 1023 10 16.0934 0 0
5:58 pm 17:58 Sunny 73 22.9 31 -0.4 21 21 W 14 22 30.17 1022 10 16.0934 0 0
6:58 pm 18:58 Sunny 75 23.8 31 -0.5 20 20 W 12 19 30.13 1020 10 16.0934 0 0
7:58 pm 19:58 Sunny 75 24 32 0 21 21 WSW 8 13 30.13 1020 10 16.0934 0 0
8:58 pm 20:58 Sunny 76 24.5 27 -2.6 16 16 WNW 3 6 30.11 1020 10 16.0934 0 0
9:58 pm 21:58 Sunny 77 24.8 28 -2.1 17 17 Calm 30.08 1019 10 16.0934 0 0
10:58 pm 22:58 Sunny 78 25.3 30 -0.9 18 18 Calm 30.07 1018 10 16.0934 0 0
11:58 pm 23:58 Sunny 76 24.2 35 1.6 23 23 E 6 9 30.06 1018 10 16.0934 0 0

Powered by AerisWeather